Location: Embarras
(53.3000°N, 116.9000°W)
Time: 16:48:47
(UTC+00:00)

Oscar 11 - Pass Details

Date: 14 December 2023
Orbit: 603 x 617 km, 97.7° (Epoch: 02 March)

Event Time Altitude Azimuth Distance (km) Brightness Sun altitude
Rises 00:09:44 0° 211° (SSW) 2,857 11.8 -5.8°
Reaches altitude 10° 00:12:39 10° 234° (SW) 1,962 11.5 -6.1°
Maximum altitude 00:15:18 16° 272° (W) 1,613 10.1 -6.5°
Drops below altitude 10° 00:17:58 10° 311° (NW) 1,978 9.9 -6.8°
Sets 00:20:57 0° 333° (NNW) 2,893 10.5 -7.2°
